Content
SEND FEEDBACK

Daily
Averages
Monthly
Summary
Canada

YELLOWKNIFE, NORTHWEST TERRITORIES


Home > North America > Canada > Northwest Territories
Elevation: 676 feet     Latitude: 62 28N     Longitude: 114 27W

WEATHER
 
SELECT A DAY
Number of Records: 195,818;   Date Range: 1/1/95 - 12/16/14
 
SHARE

PRINT THIS DATA

[ ← Previous Day ]
WEATHER ALMANAC - MAY 7, 2013
[ Next Day → ]
[ °C ]   °F
Weather ElementAverageHighLow
Temperature26.5 °F37.4 °F (7:00 pm)17 °F (6:00 am)
Dewpoint9.9 °F15.8 °F (12:00 am)6.8 °F (3:00 am)
Humidity49.9 %69 % (11:00 pm)19 % (6:00 pm)
Barometer30.28 in30.33 in (12:00 pm)30.12 in (12:00 am)
Wind Speed9.1 mph17.3 mph (1:00 am)
Wind Gust21.9 mph (4:18 pm)
Weather ElementAverage
Visibility15 mi
Wind DirectionWSW (259.3 °)

Weather ElementTotal
Precipitation---
Heating Degree Days37.8 (Base 65)
Averaged from 29 records on May 7, 2013
WEATHER CONDITIONS BREAKOUT
WIND DIRECTION BREAKOUT
WEATHER BY HOUR - MAY 7, 2013
[ °C ]   °F
Local TimeTemperatureDewpointHumidityBarometerVisibilityWind DirectionWind SpeedGust SpeedPrecipitationEventsConditions
12:00 AM26.6 °F15.8 °F64 %30.12 in15.0 miNNW (340°)6.9 mphPartly Cloudy
1:00 AM26.6 °F12.2 °F55 %30.14 in15.0 miNorth (10°)17.3 mphPartly Cloudy
2:00 AM23.0 °F10.4 °F59 %30.17 in15.0 miNorth (360°)12.7 mphClear
3:00 AM21.2 °F6.8 °F54 %30.18 in15.0 miNorth (350°)15.0 mphClear
4:00 AM19.4 °F8.6 °F63 %30.20 in15.0 miNNW (340°)10.4 mphPartly Cloudy
5:00 AM17.6 °F8.6 °F68 %30.22 in15.0 miNorth (350°)10.4 mphPartly Cloudy
6:00 AM17.6 °F8.6 °F68 %30.24 in15.0 miNorth (10°)11.5 mphPartly Cloudy
6:00 AM17.0 °F8.0 °F57 %30.24 in15.0 miNorth10.4 mphScattered Clouds
7:00 AM17.6 °F6.8 °F63 %30.27 in15.0 miNorth (350°)12.7 mphPartly Cloudy
8:00 AM17.6 °F6.8 °F63 %30.28 in15.0 miNorth (350°)11.5 mphPartly Cloudy
9:00 AM19.4 °F6.8 °F58 %30.30 in15.0 miNorth (360°)10.4 mph18.4 mphPartly Cloudy
10:00 AM21.2 °F6.8 °F54 %30.32 in15.0 miNNW (330°)8.1 mphPartly Cloudy
11:00 AM23.0 °F6.8 °F50 %30.32 in15.0 miNorth (10°)6.9 mphPartly Cloudy
12:00 PM24.8 °F8.6 °F50 %30.32 in15.0 miNNE (30°)4.6 mphPartly Cloudy
12:00 PM25.0 °F8.0 °F34 %30.33 in15.0 miNorth (350°)5.8 mphScattered Clouds
1:00 PM26.6 °F6.8 °F43 %30.32 in15.0 miNNW (340°)8.1 mphPartly Cloudy
2:00 PM28.4 °F6.8 °F40 %30.33 in15.0 miNorth (350°)8.1 mphPartly Cloudy
3:00 PM30.2 °F8.6 °F40 %30.33 in15.0 miWNW (300°)9.2 mphPartly Cloudy
4:00 PM32.0 °F10.4 °F41 %30.32 in15.0 miWest (270°)8.1 mphPartly Cloudy
4:18 PM33.8 °F10.4 °F38 %30.32 in15.0 miNorth (360°)4.6 mph21.9 mphPartly Cloudy
5:00 PM35.6 °F10.4 °F35 %30.32 in15.0 miWest (280°)6.9 mphPartly Cloudy
6:00 PM35.6 °F8.6 °F33 %30.31 in15.0 miNNW (330°)9.2 mphPartly Cloudy
6:00 PM36.0 °F9.0 °F19 %30.31 in15.0 miNW (320°)10.4 mphScattered Clouds
7:00 PM37.4 °F12.2 °F36 %30.31 in15.0 miWest (270°)9.2 mphPartly Cloudy
7:02 PM35.6 °F12.2 °F38 %30.31 in15.0 miWest (280°)10.4 mphScattered Clouds
8:00 PM35.6 °F14.0 °F41 %30.31 in15.0 miWest (270°)10.4 mphScattered Clouds
9:00 PM30.2 °F15.8 °F55 %30.32 in15.0 miSW (230°)6.9 mphPartly Cloudy
10:00 PM28.4 °F15.8 °F59 %30.33 in15.0 miSSW (210°)4.6 mphPartly Cloudy
11:00 PM24.8 °F15.8 °F69 %30.33 in15.0 miSouth (170°)4.6 mphPartly Cloudy
Hourly data recorded from CYZF, located miles away from Yellowknife, Northwest Territories







STORIES FROM OUR PARTNERS